This is the latest recevied weather packets stored in our database for station/object DL1NER. If no packets are shown the sender has not sent any weather packets the latest 10 day(s).
| Time | Temp. | Humidity | Pressure | Rain* | Wind** | Luminosity | Snow |
|---|---|---|---|---|---|---|---|
| 1777756813 | 12.22° C | 56% | 1017 hPa | 0 mm | - | 0 W/m² | - |
| 1777756213 | 12.78° C | 55% | 1017 hPa | 0 mm | - | 0 W/m² | - |
| 1777755613 | 12.78° C | 53% | 1017 hPa | 0 mm | - | 0 W/m² | - |
| 1777755013 | 13.33° C | 52% | 1017 hPa | 0 mm | - | 0 W/m² | - |
| 1777754412 | 13.89° C | 52% | 1016.9 hPa | 0 mm | - | 0 W/m² | - |
| 1777753813 | 13.89° C | 52% | 1016.9 hPa | 0 mm | - | 0 W/m² | - |
| 1777753212 | 14.44° C | 52% | 1017 hPa | 0 mm | - | 0 W/m² | - |
| 1777752612 | 14.44° C | 52% | 1017 hPa | 0 mm | - | 0 W/m² | - |
| 1777751412 | 15.56° C | 51% | 1017 hPa | 0 mm | - | 0 W/m² | - |
| 1777750812 | 16.11° C | 51% | 1017 hPa | 0 mm | - | 0 W/m² | - |
| 1777750212 | 16.67° C | 51% | 1017 hPa | 0 mm | - | 0 W/m² | - |
| 1777749612 | 17.22° C | 50% | 1016.9 hPa | 0 mm | - | 0 W/m² | - |
| 1777749012 | 18.33° C | 48% | 1016.8 hPa | 0 mm | - | 0 W/m² | - |
| 1777748412 | 18.89° C | 46% | 1016.8 hPa | 0 mm | - | 0 W/m² | - |
| 1777747812 | 20° C | 44% | 1016.9 hPa | 0 mm | - | 0 W/m² | - |
| 1777747212 | 20.56° C | 37% | 1016.8 hPa | 0 mm | - | 0 W/m² | - |
| 1777746612 | 21.11° C | 35% | 1016.7 hPa | 0 mm | - | 0 W/m² | - |
| 1777746012 | 21.67° C | 32% | 1016.7 hPa | 0 mm | - | 0 W/m² | - |
| 1777745412 | 22.78° C | 30% | 1016.7 hPa | 0 mm | - | 0 W/m² | - |
| 1777744812 | 23.33° C | 28% | 1016.7 hPa | 0 mm | - | 0 W/m² | - |
| 1777744212 | 23.33° C | 26% | 1016.6 hPa | 0 mm | - | 0 W/m² | - |
| 1777743611 | 23.89° C | 26% | 1016.6 hPa | 0 mm | - | 0 W/m² | - |
| 1777743011 | 23.89° C | 25% | 1016.6 hPa | 0 mm | - | 0 W/m² | - |
| 1777742411 | 24.44° C | 26% | 1016.6 hPa | 0 mm | - | 0 W/m² | - |
| 1777741811 | 24.44° C | 25% | 1016.7 hPa | 0 mm | - | 0 W/m² | - |
* Rain latest hour (hover to see other rain measurements)
** Current wind speed in m/s (hover to see current wind gust speed)